Location: Cicognara
(44.9500°N, 10.4667°E)
Time: 09:21:26
(UTC+00:00)

Cosmos 1328 - Pass Details

Date: 20 June 2021
Orbit: 527 x 555 km, 82.5° (Epoch: 04 August)

Event Time Altitude Azimuth Distance (km) Brightness Sun altitude
Exits shadow 22:30:49 54° 109° (ESE) 648 3.9 -20.7°
Maximum altitude 22:31:01 55° 95° (E) 643 4.0 -20.7°
Drops below altitude 10° 22:34:51 10° 17° (NNE) 1,785 7.3 -20.8°
Sets 22:37:02 0° 13° (NNE) 2,682 8.5 -20.9°
